This is the latest recevied weather packets stored in our database for station/object ED4YAF-13. If no packets are shown the sender has not sent any weather packets the latest 10 day(s).
| Time | Temp. | Humidity | Pressure | Rain* | Wind** | Luminosity | Snow |
|---|---|---|---|---|---|---|---|
| 1788104667 | 24.44° C | 24% | 1010.4 hPa | - | - | - | - |
| 1788103742 | 25.56° C | 23% | 1009.8 hPa | - | - | - | - |
| 1788102835 | 25° C | 24% | 1010.4 hPa | - | - | - | - |
| 1788101909 | 25.56° C | 23% | 1009.7 hPa | - | - | - | - |
| 1788101009 | 25° C | 24% | 1010.2 hPa | - | - | - | - |
| 1788100102 | 25.56° C | 23% | 1010.2 hPa | - | - | - | - |
| 1788099202 | 25.56° C | 24% | 1010.1 hPa | - | - | - | - |
| 1788098284 | 25° C | 23% | 1010.6 hPa | - | - | - | - |
| 1788097392 | 25.56° C | 23% | 1010.5 hPa | - | - | - | - |
| 1788096457 | 25° C | 24% | 1010.8 hPa | - | - | - | - |
| 1788095557 | 25° C | 23% | 1010.9 hPa | - | - | - | - |
| 1788094657 | 25.56° C | 23% | 1010.9 hPa | - | - | - | - |
| 1788093757 | 23.89° C | 24% | 1011.8 hPa | - | - | - | - |
| 1788092861 | 23.89° C | 23% | 1011.9 hPa | - | - | - | - |
| 1788091961 | 23.89° C | 24% | 1012 hPa | - | - | - | - |
| 1788091053 | 23.89° C | 24% | 1012 hPa | - | - | - | - |
| 1788090160 | 22.78° C | 24% | 1012.8 hPa | - | - | - | - |
| 1788089260 | 23.33° C | 25% | 1012.5 hPa | - | - | - | - |
| 1788088353 | 23.33° C | 25% | 1012.7 hPa | - | - | - | - |
| 1788087440 | 22.22° C | 26% | 1013.2 hPa | - | - | - | - |
| 1788086531 | 22.78° C | 26% | 1013.2 hPa | - | - | - | - |
| 1788085631 | 22.22° C | 27% | 1013.6 hPa | - | - | - | - |
| 1788084731 | 21.11° C | 28% | 1014.5 hPa | - | - | - | - |
| 1788083838 | 21.11° C | 28% | 1014.4 hPa | - | - | - | - |
| 1788082922 | 20.56° C | 29% | 1014.9 hPa | - | - | - | - |
* Rain since midnight (hover to see other rain measurements)
** Current wind speed in m/s (hover to see current wind gust speed)